Home   Weather   Stavanger   Past weeks

Flag for Norway Past Weather in Stavanger, Norway — Yesterday and Last 2 Weeks

Now
57 °F

Scattered clouds.


Feels Like: 56 °F
Forecast: 57 / 62 °F
Wind: 7 mph from South

Location: Stavanger / Sola

Current Time: Sep 26, 2016 at 10:53:09 AM

Latest Report: Sep 26, 2016 at 9:50 AM


Visibility: N/A

Pressure: 30.07 "Hg

Humidity: 82%

Dew Point: 52 °F

Location of StavangerLocation

Past Weather in Stavanger — Graph

°F

Stavanger Temperature Yesterday

Maximum temperature yesterday: 72 °F (at 1:50 PM)
Minimum temperature yesterday: 59 °F (at 10:50 PM)
Average temperature yesterday: 66 °F

High & Low Weather Summary for the Past Weeks

 TemperatureHumidityPressure
High79 °F (Sep 13, 2:50 PM)100% (Sep 20, 2:50 AM)30.24 "Hg (Sep 20, 2:50 AM)
Low52 °F (Sep 23, 9:50 PM)44% (Sep 25, 4:20 PM)29.83 "Hg (Sep 11, 9:20 AM)
Average63 °F76%30.06 "Hg
* Reported Sep 11 9:20 AM — Sep 26 9:20 AM, Stavanger, Weather by CustomWeather, © 2016

Note: Actual official high and low records may vary slightly from our data, if they occured in-between our weather recording intervals... More about our weather records

Advertising

Stavanger Weather History for the Previous 24 Hours

Scroll right to see more
 ConditionsComfort  
Time TempWeatherWind HumidityBarometerVisibility
9:20 AM
Mon, Sep 26
55 °FScattered clouds.7 mph88%30.07 "HgN/A
8:50 AM55 °FScattered clouds.7 mph82%30.07 "HgN/A
8:20 AM55 °FScattered clouds.8 mph82%30.07 "HgN/A
7:50 AM54 °FSprinkles. Broken clouds.9 mph88%30.04 "HgN/A
7:20 AM54 °FScattered showers. Passing clouds.7 mph88%30.04 "HgN/A
6:50 AM54 °FPassing clouds.7 mph88%30.04 "HgN/A
6:20 AM54 °FPassing clouds.5 mph88%30.04 "HgN/A
5:50 AM54 °FPassing clouds.6 mph94%30.04 "HgN/A
4:50 AM55 °FSprinkles. Partly cloudy.7 mph88%30.01 "HgN/A
3:50 AM55 °FPartly cloudy.6 mph88%30.01 "HgN/A
2:50 AM55 °FPartly cloudy.5 mph88%29.98 "HgN/A
1:50 AM59 °FPartly cloudy.7 mph88%29.98 "HgN/A
12:50 AM59 °FPartly cloudy.5 mph94%29.95 "HgN/A
12:20 AM59 °FPartly cloudy.6 mph88%29.92 "HgN/A
11:50 PM
Sun, Sep 25
61 °FSprinkles. Partly cloudy.10 mph83%29.92 "HgN/A
11:20 PM59 °FPartly cloudy.12 mph94%29.89 "HgN/A
10:50 PM59 °FRain showers. Passing clouds.18 mph94%29.89 "Hg3 mi
10:20 PM63 °FRain showers. Partly cloudy.20 mph83%29.86 "HgN/A
9:50 PM64 °FRain showers. Mostly cloudy.22 mph78%29.86 "HgN/A
9:20 PM64 °FMostly cloudy.18 mph73%29.86 "HgN/A
8:50 PM64 °FPartly cloudy.22 mph68%29.86 "HgN/A
8:20 PM66 °FPartly cloudy.24 mph60%29.86 "HgN/A
7:50 PM66 °FPartly cloudy.20 mph56%29.86 "HgN/A
7:20 PM66 °FScattered clouds.18 mph56%29.86 "HgN/A
6:50 PM68 °FScattered clouds.21 mph53%29.86 "HgN/A
6:20 PM68 °FScattered clouds.20 mph53%29.86 "HgN/A
5:50 PM68 °FPassing clouds.24 mph53%29.86 "HgN/A
5:20 PM70 °FPassing clouds.22 mph50%29.86 "HgN/A
4:50 PM70 °FPassing clouds.24 mph50%29.86 "HgN/A
4:20 PM72 °FPassing clouds.26 mph44%29.86 "HgN/A
3:50 PM72 °FPassing clouds.25 mph47%29.86 "HgN/A
3:20 PM72 °FPassing clouds.28 mph50%29.86 "HgN/A
2:50 PM72 °FPassing clouds.24 mph50%29.86 "HgN/A
2:20 PM72 °FSunny.23 mph50%29.86 "Hg10 mi
1:50 PM72 °FSunny.24 mph50%29.86 "Hg10 mi
1:20 PM70 °FSunny.23 mph60%29.89 "Hg10 mi
12:50 PM70 °FSunny.23 mph60%29.89 "Hg10 mi
12:20 PM70 °FSunny.20 mph60%29.89 "Hg10 mi
11:50 AM68 °FSunny.21 mph69%29.89 "Hg10 mi
11:20 AM68 °FPassing clouds.17 mph64%29.89 "HgN/A
10:50 AM68 °FScattered clouds.18 mph64%29.89 "HgN/A
10:20 AM66 °FScattered clouds.21 mph68%29.89 "HgN/A
Weather by CustomWeather, © 2016

See weather overviewHow to use our weather pages